{"data":{"norad_id":52273,"epoch":"2026-05-25T02:18:15.810912Z","epoch_age_seconds":73524,"freshness":"FRESH","line1":"1 52273U 22041N   26145.09601633 -.00000485  00000+0 -12377-4 0  9996","line2":"2 52273  53.2142 116.5000 0001168  67.1452 292.9663 15.08840983226038","mean_motion":15.08840983,"eccentricity":0.0001168,"inclination_deg":53.2142,"raan_deg":116.5,"arg_perigee_deg":67.1452,"mean_anomaly_deg":292.9663,"bstar":-1.2377e-5,"rev_number":22603,"period_min":95.437492500825,"perigee_km":538.9323762495,"apogee_km":540.54839240648,"semimajor_km":6917.877384328,"source":"CELESTRAK","updated_at":"2026-05-25T13:38:17.082337Z"}}